This demonstration page uses our WeatherBlox Daily Observations layout. Learn more.

Left ArrowRight Arrow

38.83388, -104.82136

Hourly Observations for March 16, 2021

Temp ( °F °C ) Dew Point ( °F °C ) Humidity (%) Winds ( mph kmh ) Pressure ( in mb ) Visibility ( mi km ) Precip ( " mm )
12:58 am 00:58 Clear 35 1.4 22 -5.5 60 60 Calm 29.53 1000 10 16 0.00 0.00
1:58 am 01:58 Clear 39 3.8 19 -7.3 45 45 WNW 7 11 29.49 999 10 16 0.00 0.00
2:58 am 02:58 Mostly Clear 39 3.9 18 -8 42 42 W 3 6 29.45 997 10 16 0.00 0.00
3:58 am 03:58 Partly Cloudy 41 4.9 16 -9 36 36 WNW 13 20 29.44 997 10 16 0.00 0.00
4:58 am 04:58 Mostly Clear 41 5.1 15 -9.3 35 35 W 16 26 29.43 997 10 16 0.00 0.00
5:58 am 05:58 Partly Cloudy 37 2.6 18 -8 46 46 SSW 9 15 29.43 997 10 16 0.00 0.00
6:58 am 06:58 Clear 37 3 17 -8.3 44 44 SSW 8 13 29.46 998 10 16 0.00 0.00
7:58 am 07:58 Sunny 35 1.8 19 -7.1 52 52 S 12 19 29.48 998 10 16 0.00 0.00
8:58 am 08:58 Sunny 39 3.9 16 -8.8 39 39 SSW 6 9 29.48 998 10 16 0.00 0.00
9:58 am 09:58 Mostly Cloudy 33 0.8 22 -5.3 64 64 Calm 29.51 999 10 16 0.00 0.00
10:58 am 10:58 Mostly Cloudy 38 3.4 21 -6 51 51 E 6 9 29.49 999 10 16 0.00 0.00
11:58 am 11:58 Mostly Cloudy 37 3 23 -5.1 56 56 ESE 12 19 29.47 998 10 16 0.00 0.00
12:58 pm 12:58 Mostly Cloudy 36 2.3 27 -3 68 68 SE 12 19 29.49 999 10 16 0.00 0.00
1:08 pm 13:08 Mostly Cloudy 36 2 27 -3 70 70 ESE 10 17 29.47 998 10 16 0.00 0.00
1:58 pm 13:58 Mostly Cloudy 35 1.5 27 -2.8 73 73 SE 8 13 29.47 998 10 16 0.00 0.00
2:33 pm 14:33 Mostly Cloudy 36 2 27 -3 70 70 SE 7 11 29.45 997 10 16 0.00 0.00
2:38 pm 14:38 Cloudy with Haze 34 1 27 -3 75 75 ESE 7 11 29.47 998 4 6 0.00 0.00
2:58 pm 14:58 Cloudy with Haze 32 0.2 28 -2.2 84 84 SE 7 11 29.48 998 4 6 0.00 0.00
3:03 pm 15:03 Cloudy with Mist and Fog 32 0 28 -2 87 87 SE 6 9 29.48 998 5 8 0.00 0.00
3:23 pm 15:23 Cloudy 32 0 30 -1 93 93 SSE 3 6 29.48 998 7 11 0.00 0.00
3:58 pm 15:58 Cloudy 33 0.8 28 -2.5 79 79 S 3 6 29.47 998 10 16 0.00 0.00
4:58 pm 16:58 Cloudy 32 0.1 26 -3.6 76 76 NNW 12 19 29.47 998 10 16 0.00 0.00
5:58 pm 17:58 Mostly Cloudy 31 -0.5 25 -4.1 77 77 NNW 9 15 29.54 1000 10 16 0.00 0.00
6:58 pm 18:58 Cloudy 30 -1 24 -4.2 79 79 NNW 13 20 29.57 1002 10 16 0.00 0.00
7:58 pm 19:58 Cloudy 29 -1.4 24 -4.5 80 80 N 12 19 29.61 1003 10 16 0.00 0.00
8:58 pm 20:58 Cloudy 29 -1.7 24 -4.3 83 83 N 13 20 29.60 1003 10 16 0.00 0.00
9:28 pm 21:28 Mostly Cloudy 28 -2 25 -4 86 86 NNW 17 28 29.60 1003 10 16 0.00 0.00
9:58 pm 21:58 Mostly Cloudy 28 -2 23 -4.9 81 81 N 16 26 29.62 1003 10 16 0.00 0.00
10:48 pm 22:48 Mostly Cloudy 28 -2 25 -4 86 86 Calm 29.62 1003 10 16 0.00 0.00
10:58 pm 22:58 Mostly Cloudy 28 -2.2 25 -3.8 89 89 Calm 29.62 1003 10 16 0.00 0.00
11:03 pm 23:03 Mostly Cloudy 28 -2 25 -4 86 86 Calm 29.62 1003 10 16 0.00 0.00
11:48 pm 23:48 Cloudy 27 -3 25 -4 93 93 Calm 29.62 1003 10 16 0.00 0.00
11:58 pm 23:58 Cloudy 27 -2.9 24 -4.3 90 90 Calm 29.63 1004 10 16 0.00 0.00

Powered by AerisWeather